Previsão horária em 1-e Maya

Hoje, 18 Abril, Domingo

Tempo Temperatura Precipitação Vento Pressão Humidade
00:00 +8°C° 0 mm 4 m/s 753 mmHg 63%
01:00 +8°C° 0 mm 4 m/s 753 mmHg 65%
02:00 +8°C° 0 mm 3 m/s 753 mmHg 67%
03:00 +8°C° 0 mm 3 m/s 753 mmHg 68%
04:00 +7°C° 0.5 mm 3 m/s 753 mmHg 73%
05:00 +7°C° 0.5 mm 3 m/s 753 mmHg 77%
06:00 +5°C° 0.5 mm 3 m/s 753 mmHg 81%
07:00 +6°C° 0.7 mm 2 m/s 753 mmHg 83%
08:00 +6°C° 0.7 mm 2 m/s 753 mmHg 85%
09:00 +6°C° 0.7 mm 2 m/s 753 mmHg 86%
10:00 +5°C° 0.7 mm 3 m/s 754 mmHg 86%
11:00 +5°C° 0.7 mm 3 m/s 754 mmHg 86%
12:00 +7°C° 0.7 mm 3 m/s 754 mmHg 86%
13:00 +7°C° 0 mm 3 m/s 754 mmHg 83%
14:00 +8°C° 0 mm 3 m/s 754 mmHg 80%
15:00 +9°C° 0 mm 3 m/s 754 mmHg 76%
16:00 +8°C° 0 mm 4 m/s 754 mmHg 78%
17:00 +8°C° 0 mm 4 m/s 754 mmHg 79%
18:00 +7°C° 0 mm 4 m/s 754 mmHg 80%
19:00 +7°C° 0 mm 4 m/s 754 mmHg 83%
20:00 +7°C° 0 mm 3 m/s 755 mmHg 86%
21:00 +5°C° 0 mm 3 m/s 755 mmHg 88%
22:00 +5°C° 0.1 mm 3 m/s 755 mmHg 87%
23:00 +5°C° 0.1 mm 3 m/s 755 mmHg 86%

Amanhã, 19 Abril, Segunda-feira

Tempo Temperatura Precipitação Vento Pressão Humidade
00:00 +7°C° 0.1 mm 3 m/s 755 mmHg 85%
01:00 +7°C° 0 mm 3 m/s 755 mmHg 85%
02:00 +6°C° 0 mm 4 m/s 755 mmHg 86%
03:00 +6°C° 0 mm 4 m/s 755 mmHg 86%
04:00 +5°C° 0.3 mm 4 m/s 755 mmHg 88%
05:00 +5°C° 0.3 mm 4 m/s 755 mmHg 89%
06:00 +5°C° 0.3 mm 4 m/s 755 mmHg 91%
07:00 +3°C° 0.3 mm 5 m/s 755 mmHg 90%
08:00 +3°C° 0.3 mm 5 m/s 755 mmHg 89%
09:00 +2°C° 0.3 mm 5 m/s 755 mmHg 89%
10:00 +2°C° 0.4 mm 5 m/s 756 mmHg 91%
11:00 +2°C° 0.4 mm 5 m/s 756 mmHg 92%
12:00 +1°C° 0.4 mm 5 m/s 756 mmHg 94%
13:00 +1°C° 1 mm 5 m/s 756 mmHg 94%
14:00 +2°C° 1 mm 5 m/s 756 mmHg 94%
15:00 +2°C° 1 mm 5 m/s 756 mmHg 94%
16:00 +2°C° 0.2 mm 5 m/s 756 mmHg 90%
17:00 +3°C° 0.2 mm 5 m/s 756 mmHg 85%
18:00 +3°C° 0.2 mm 5 m/s 756 mmHg 81%
19:00 +3°C° 0 mm 5 m/s 756 mmHg 82%
20:00 +2°C° 0 mm 5 m/s 756 mmHg 84%
21:00 +2°C° 0 mm 5 m/s 756 mmHg 85%
22:00 +2°C° 0 mm 5 m/s 756 mmHg 89%
23:00 +2°C° 0 mm 5 m/s 756 mmHg 92%

Depois de amanhã, 20 Abril, Terça-feira

Tempo Temperatura Precipitação Vento Pressão Humidade
00:00 +2°C° 0 mm 5 m/s 755 mmHg 95%
01:00 +2°C° 0.1 mm 5 m/s 755 mmHg 95%
02:00 +2°C° 0.1 mm 5 m/s 755 mmHg 96%
03:00 +2°C° 0.1 mm 5 m/s 755 mmHg 96%
04:00 +3°C° 0 mm 4 m/s 755 mmHg 95%
05:00 +3°C° 0 mm 4 m/s 755 mmHg 95%
06:00 +3°C° 0 mm 4 m/s 755 mmHg 94%
07:00 +2°C° 0 mm 5 m/s 755 mmHg 92%
08:00 +3°C° 0 mm 5 m/s 755 mmHg 90%
09:00 +3°C° 0 mm 5 m/s 755 mmHg 88%
10:00 +3°C° 0 mm 5 m/s 755 mmHg 87%
11:00 +3°C° 0 mm 5 m/s 755 mmHg 86%
12:00 +5°C° 0 mm 5 m/s 755 mmHg 86%
13:00 +5°C° 0 mm 5 m/s 755 mmHg 85%
14:00 +5°C° 0 mm 5 m/s 754 mmHg 84%
15:00 +5°C° 0 mm 5 m/s 754 mmHg 83%
16:00 +4°C° 0 mm 6 m/s 753 mmHg 79%
17:00 +5°C° 0 mm 6 m/s 753 mmHg 76%
18:00 +5°C° 0 mm 7 m/s 752 mmHg 72%
19:00 +5°C° 0.1 mm 7 m/s 751 mmHg 71%
20:00 +5°C° 0.1 mm 8 m/s 751 mmHg 70%
21:00 +5°C° 0.1 mm 8 m/s 750 mmHg 68%
22:00 +5°C° 1.2 mm 8 m/s 749 mmHg 73%
23:00 +3°C° 1.2 mm 9 m/s 748 mmHg 77%

21 Abril, Quarta-feira

Tempo Temperatura Precipitação Vento Pressão Humidade
00:00 +2°C° 1.2 mm 9 m/s 746 mmHg 82%
01:00 +2°C° 1.9 mm 9 m/s 746 mmHg 84%
02:00 +2°C° 1.9 mm 9 m/s 745 mmHg 87%
03:00 +2°C° 1.9 mm 8 m/s 745 mmHg 90%
04:00 +2°C° 0.1 mm 8 m/s 745 mmHg 89%
05:00 +2°C° 0.1 mm 8 m/s 744 mmHg 89%
06:00 +4°C° 0.1 mm 8 m/s 744 mmHg 89%
07:00 +4°C° 0.4 mm 8 m/s 744 mmHg 89%
08:00 +4°C° 0.4 mm 8 m/s 743 mmHg 89%
09:00 +4°C° 0.4 mm 8 m/s 743 mmHg 89%
10:00 +5°C° 0.1 mm 8 m/s 743 mmHg 89%
11:00 +6°C° 0.1 mm 7 m/s 743 mmHg 89%
12:00 +6°C° 0.1 mm 7 m/s 743 mmHg 89%
13:00 +6°C° 0.4 mm 7 m/s 744 mmHg 89%
14:00 +7°C° 0.4 mm 6 m/s 744 mmHg 89%
15:00 +7°C° 0.4 mm 6 m/s 744 mmHg 89%
16:00 +5°C° 0 mm 6 m/s 745 mmHg 86%
17:00 +5°C° 0 mm 6 m/s 746 mmHg 84%
18:00 +5°C° 0 mm 6 m/s 747 mmHg 81%
19:00 +5°C° 0 mm 6 m/s 748 mmHg 81%
20:00 +5°C° 0 mm 6 m/s 748 mmHg 81%
21:00 +5°C° 0 mm 6 m/s 749 mmHg 81%
22:00 +5°C° 0 mm 5 m/s 749 mmHg 81%
23:00 +5°C° 0 mm 5 m/s 750 mmHg 80%

22 Abril, Quinta-feira

Tempo Temperatura Precipitação Vento Pressão Humidade
00:00 +5°C° 0 mm 5 m/s 750 mmHg 80%
01:00 +5°C° 0 mm 4 m/s 751 mmHg 82%
02:00 +5°C° 0 mm 4 m/s 751 mmHg 84%
03:00 +4°C° 0 mm 4 m/s 751 mmHg 86%
04:00 +5°C° 0 mm 4 m/s 752 mmHg 86%
05:00 +5°C° 0 mm 3 m/s 752 mmHg 86%
06:00 +5°C° 0 mm 3 m/s 753 mmHg 85%
07:00 +7°C° 0 mm 3 m/s 753 mmHg 80%
08:00 +8°C° 0 mm 3 m/s 754 mmHg 74%
09:00 +8°C° 0 mm 3 m/s 754 mmHg 68%
10:00 +8°C° 0 mm 4 m/s 754 mmHg 64%
11:00 +10°C° 0 mm 4 m/s 755 mmHg 59%
12:00 +11°C° 0 mm 4 m/s 755 mmHg 54%
13:00 +12°C° 0.1 mm 4 m/s 755 mmHg 53%
14:00 +12°C° 0.1 mm 3 m/s 755 mmHg 52%
15:00 +12°C° 0.1 mm 3 m/s 755 mmHg 51%
16:00 +12°C° 0 mm 3 m/s 756 mmHg 55%
17:00 +13°C° 0 mm 2 m/s 756 mmHg 60%
18:00 +12°C° 0 mm 2 m/s 756 mmHg 64%
19:00 +10°C° 0 mm 2 m/s 756 mmHg 69%
20:00 +9°C° 0 mm 2 m/s 757 mmHg 74%
21:00 +8°C° 0 mm 2 m/s 757 mmHg 79%
22:00 +8°C° 0 mm 2 m/s 757 mmHg 82%
23:00 +7°C° 0 mm 2 m/s 757 mmHg 84%

23 Abril, Sexta-feira

Tempo Temperatura Precipitação Vento Pressão Humidade
00:00 +7°C° 0 mm 2 m/s 757 mmHg 87%
01:00 +7°C° 0 mm 2 m/s 757 mmHg 86%
02:00 +7°C° 0 mm 2 m/s 758 mmHg 85%
03:00 +7°C° 0 mm 2 m/s 758 mmHg 85%
04:00 +7°C° 0 mm 2 m/s 758 mmHg 84%
05:00 +7°C° 0 mm 2 m/s 758 mmHg 83%
06:00 +7°C° 0 mm 2 m/s 758 mmHg 82%
07:00 +8°C° 0 mm 2 m/s 759 mmHg 77%
08:00 +9°C° 0 mm 2 m/s 759 mmHg 72%
09:00 +10°C° 0 mm 2 m/s 759 mmHg 67%
10:00 +11°C° 0.1 mm 3 m/s 759 mmHg 63%
11:00 +12°C° 0.1 mm 3 m/s 759 mmHg 60%
12:00 +13°C° 0.1 mm 3 m/s 760 mmHg 57%
13:00 +14°C° 0.1 mm 3 m/s 759 mmHg 54%
14:00 +14°C° 0.1 mm 3 m/s 759 mmHg 51%
15:00 +16°C° 0.1 mm 3 m/s 759 mmHg 48%
16:00 +16°C° 0 mm 2 m/s 759 mmHg 52%
17:00 +15°C° 0 mm 1 m/s 759 mmHg 56%
18:00 +15°C° 0 mm 1 m/s 759 mmHg 60%
19:00 +13°C° 0 mm 1 m/s 759 mmHg 64%
20:00 +12°C° 0 mm 1 m/s 760 mmHg 67%
21:00 +11°C° 0 mm 1 m/s 760 mmHg 70%
22:00 +11°C° 0 mm 1 m/s 760 mmHg 72%
23:00 +10°C° 0 mm 1 m/s 760 mmHg 73%
Mostrar mais

Necessitamos do seu Consentimento

A Meteoprog e os seus Fornecedores de Serviços podem armazenar e aceder a dados pessoais como cookies, identificadores do dispositivo ou outras tecnologias semelhantes existentes no seu dispositivo e processar estes dados para personalizar conteúdos e anúncios, assim como funcionalidades nas redes sociais e análise de tráfego.

  • Armazenar e/ou aceder a informações no seu dispositivo

    Os cookies, identificadores do dispositivo ou outras informações podem ser armazenados ou acedidos no seu dispositivo, para os fins acima indicados.

  • Anúncios e conteúdos personalizados, medição de anúncios e conteúdos, dados sobre o público-alvo e desenvolvimento de produtos

    Os anúncios e os conteúdos podem ser personalizados com base num perfil. Podem ser adicionados dados adicionais para uma maior personalização dos anúncios e dos conteúdos. A eficácia dos anúncios e dos conteúdos pode ser medida. Podem ser obtidas informações sobre o público que visualizou os anúncios e os conteúdos. Estes dados podem ser usados para desenvolver ou melhorar sistemas, softwares ou a experiência do utilizador.

Ao clicar em "Eu concordo”, permitirá o uso de cookies, identificadores do dispositivo e web beacons mencionados ou outras tecnologias semelhantes. As configurações do navegador do seu dispositivo podem ser alteradas.

Para certos fins, podem ser invocados interesses legítimos ao invés de consentimento. Pode ler mais informação sobre este assunto na nossa Política de Privacidade e Cookies.